Year,Month,Day,Hour,Minute,Value (Times are PST for temperature in C)
2013,04,26,00,00,10.60
2013,04,26,00,01,10.50
2013,04,26,00,02,10.40
2013,04,26,00,03,10.40
2013,04,26,00,04,10.40
2013,04,26,00,05,10.40
2013,04,26,00,06,10.40
2013,04,26,00,07,10.40
2013,04,26,00,08,10.40
2013,04,26,00,09,10.40
2013,04,26,00,10,10.40
2013,04,26,00,11,10.40
2013,04,26,00,12,10.40
2013,04,26,00,13,10.40
2013,04,26,00,14,10.40
2013,04,26,00,15,10.40
2013,04,26,00,16,10.40
2013,04,26,00,17,10.30
2013,04,26,00,18,10.30
2013,04,26,00,19,10.30
2013,04,26,00,20,10.30
2013,04,26,00,21,10.30
2013,04,26,00,22,10.30
2013,04,26,00,23,10.30
2013,04,26,00,24,10.30
2013,04,26,00,25,10.30
2013,04,26,00,26,10.30
2013,04,26,00,27,10.40
2013,04,26,00,28,10.40
2013,04,26,00,29,10.40
2013,04,26,00,30,10.40
2013,04,26,00,31,10.40
2013,04,26,00,32,10.40
2013,04,26,00,33,10.40
2013,04,26,00,34,10.40
2013,04,26,00,35,10.40
2013,04,26,00,36,10.40
2013,04,26,00,37,10.40
2013,04,26,00,38,10.40
2013,04,26,00,39,10.40
2013,04,26,00,40,10.40
2013,04,26,00,41,10.40
2013,04,26,00,42,10.40
2013,04,26,00,43,10.40
2013,04,26,00,44,10.40
2013,04,26,00,45,10.40
2013,04,26,00,46,10.40
2013,04,26,00,47,10.40
2013,04,26,00,48,10.40
2013,04,26,00,49,10.40
2013,04,26,00,50,10.40
2013,04,26,00,51,10.40
2013,04,26,00,52,10.40
2013,04,26,00,53,10.30
2013,04,26,00,54,10.30
2013,04,26,00,55,10.30
2013,04,26,00,56,10.20
2013,04,26,00,57,10.20
2013,04,26,00,58,10.20
2013,04,26,00,59,10.10
2013,04,26,01,00,10.10
2013,04,26,01,01,10.10
2013,04,26,01,02,10.00
2013,04,26,01,03,10.00
2013,04,26,01,04,9.90
2013,04,26,01,05,9.90
2013,04,26,01,06,9.90
2013,04,26,01,07,9.90
2013,04,26,01,08,9.90
2013,04,26,01,09,9.80
2013,04,26,01,10,9.80
2013,04,26,01,11,9.80
2013,04,26,01,12,9.80
2013,04,26,01,13,9.80
2013,04,26,01,14,9.80
2013,04,26,01,15,9.90
2013,04,26,01,16,9.90
2013,04,26,01,17,9.90
2013,04,26,01,18,9.90
2013,04,26,01,19,9.90
2013,04,26,01,20,9.90
2013,04,26,01,21,9.90
2013,04,26,01,22,9.90
2013,04,26,01,23,9.90
2013,04,26,01,24,9.90
2013,04,26,01,25,9.90
2013,04,26,01,26,9.90
2013,04,26,01,27,9.80
2013,04,26,01,28,9.80
2013,04,26,01,29,9.80
2013,04,26,01,30,9.70
2013,04,26,01,31,9.70
2013,04,26,01,32,9.70
2013,04,26,01,33,9.70
2013,04,26,01,34,9.60
2013,04,26,01,35,9.60
2013,04,26,01,36,9.50
2013,04,26,01,37,9.50
2013,04,26,01,38,9.40
2013,04,26,01,39,9.40
2013,04,26,01,40,9.40
2013,04,26,01,41,9.40
2013,04,26,01,42,9.30
2013,04,26,01,43,9.30
2013,04,26,01,44,9.30
2013,04,26,01,45,9.30
2013,04,26,01,46,9.30
2013,04,26,01,47,9.30
2013,04,26,01,48,9.30
2013,04,26,01,49,9.30
2013,04,26,01,50,9.30
2013,04,26,01,51,9.30
2013,04,26,01,52,9.30
2013,04,26,01,53,9.30
2013,04,26,01,54,9.20
2013,04,26,01,55,9.20
2013,04,26,01,56,9.20
2013,04,26,01,57,9.20
2013,04,26,01,58,9.20
2013,04,26,01,59,9.20
2013,04,26,02,00,9.20
2013,04,26,02,01,9.10
2013,04,26,02,02,9.10
2013,04,26,02,03,9.10
2013,04,26,02,04,9.10
2013,04,26,02,05,9.00
2013,04,26,02,06,9.00
2013,04,26,02,07,9.00
2013,04,26,02,08,9.00
2013,04,26,02,09,8.90
2013,04,26,02,10,8.90
2013,04,26,02,11,8.90
2013,04,26,02,12,8.90
2013,04,26,02,13,8.90
2013,04,26,02,14,8.80
2013,04,26,02,15,8.80
2013,04,26,02,16,8.80
2013,04,26,02,17,8.80
2013,04,26,02,18,8.80
2013,04,26,02,19,8.70
2013,04,26,02,20,8.70
2013,04,26,02,21,8.70
2013,04,26,02,22,8.70
2013,04,26,02,23,8.70
2013,04,26,02,24,8.70
2013,04,26,02,25,8.70
2013,04,26,02,26,8.60
2013,04,26,02,27,8.60
2013,04,26,02,28,8.60
2013,04,26,02,29,8.60
2013,04,26,02,30,8.60
2013,04,26,02,31,8.60
2013,04,26,02,32,8.60
2013,04,26,02,33,8.60
2013,04,26,02,34,8.50
2013,04,26,02,35,8.50
2013,04,26,02,36,8.40
2013,04,26,02,37,8.40
2013,04,26,02,38,8.40
2013,04,26,02,39,8.30
2013,04,26,02,40,8.30
2013,04,26,02,41,8.30
2013,04,26,02,42,8.30
2013,04,26,02,43,8.30
2013,04,26,02,44,8.30
2013,04,26,02,45,8.20
2013,04,26,02,46,8.20
2013,04,26,02,47,8.20
2013,04,26,02,48,8.20
2013,04,26,02,49,8.20
2013,04,26,02,50,8.10
2013,04,26,02,51,8.10
2013,04,26,02,52,8.00
2013,04,26,02,53,8.00
2013,04,26,02,54,7.90
2013,04,26,02,55,7.80
2013,04,26,02,56,7.80
2013,04,26,02,57,7.80
2013,04,26,02,58,7.70
2013,04,26,02,59,7.60
2013,04,26,03,00,7.60
2013,04,26,03,01,7.50
2013,04,26,03,02,7.40
2013,04,26,03,03,7.30
2013,04,26,03,04,7.30
2013,04,26,03,05,7.30
2013,04,26,03,06,7.30
2013,04,26,03,07,7.30
2013,04,26,03,08,7.30
2013,04,26,03,09,7.30
2013,04,26,03,10,7.30
2013,04,26,03,11,7.30
2013,04,26,03,12,7.30
2013,04,26,03,13,7.30
2013,04,26,03,14,7.40
2013,04,26,03,15,7.40
2013,04,26,03,16,7.40
2013,04,26,03,17,7.40
2013,04,26,03,18,7.50
2013,04,26,03,19,7.50
2013,04,26,03,20,7.50
2013,04,26,03,21,7.60
2013,04,26,03,22,7.60
2013,04,26,03,23,7.60
2013,04,26,03,24,7.70
2013,04,26,03,25,7.70
2013,04,26,03,26,7.70
2013,04,26,03,27,7.70
2013,04,26,03,28,7.70
2013,04,26,03,29,7.70
2013,04,26,03,30,7.70
2013,04,26,03,31,7.70
2013,04,26,03,32,7.80
2013,04,26,03,33,7.80
2013,04,26,03,34,7.80
2013,04,26,03,35,7.90
2013,04,26,03,36,7.90
2013,04,26,03,37,7.90
2013,04,26,03,38,7.90
2013,04,26,03,39,7.90
2013,04,26,03,40,7.90
2013,04,26,03,41,7.90
2013,04,26,03,42,7.90
2013,04,26,03,43,7.90
2013,04,26,03,44,7.90
2013,04,26,03,45,7.90
2013,04,26,03,46,7.90
2013,04,26,03,47,7.90
2013,04,26,03,48,7.90
2013,04,26,03,49,7.90
2013,04,26,03,50,8.00
2013,04,26,03,51,7.90
2013,04,26,03,52,7.90
2013,04,26,03,53,7.80
2013,04,26,03,54,7.80
2013,04,26,03,55,7.80
2013,04,26,03,56,7.70
2013,04,26,03,57,7.70
2013,04,26,03,58,7.70
2013,04,26,03,59,7.60
2013,04,26,04,00,7.60
2013,04,26,04,01,7.60
2013,04,26,04,02,7.60
2013,04,26,04,03,7.60
2013,04,26,04,04,7.60
2013,04,26,04,05,7.60
2013,04,26,04,06,7.60
2013,04,26,04,07,7.60
2013,04,26,04,08,7.70
2013,04,26,04,09,7.60
2013,04,26,04,10,7.60
2013,04,26,04,11,7.60
2013,04,26,04,12,7.50
2013,04,26,04,13,7.50
2013,04,26,04,14,7.50
2013,04,26,04,15,7.40
2013,04,26,04,16,7.40
2013,04,26,04,17,7.30
2013,04,26,04,18,7.30
2013,04,26,04,19,7.30
2013,04,26,04,20,7.30
2013,04,26,04,21,7.20
2013,04,26,04,22,7.20
2013,04,26,04,23,7.20
2013,04,26,04,24,7.10
2013,04,26,04,25,7.10
2013,04,26,04,26,7.10
2013,04,26,04,27,7.10
2013,04,26,04,28,7.10
2013,04,26,04,29,7.10
2013,04,26,04,30,7.10
2013,04,26,04,31,7.10
2013,04,26,04,32,7.10
2013,04,26,04,33,7.10
2013,04,26,04,34,7.00
2013,04,26,04,35,7.00
2013,04,26,04,36,7.00
2013,04,26,04,37,6.90
2013,04,26,04,38,6.90
2013,04,26,04,39,6.80
2013,04,26,04,40,6.80
2013,04,26,04,41,6.70
2013,04,26,04,42,6.70
2013,04,26,04,43,6.60
2013,04,26,04,44,6.60
2013,04,26,04,45,6.60
2013,04,26,04,46,6.50
2013,04,26,04,47,6.50
2013,04,26,04,48,6.40
2013,04,26,04,49,6.40
2013,04,26,04,50,6.40
2013,04,26,04,51,6.40
2013,04,26,04,52,6.30
2013,04,26,04,53,6.30
2013,04,26,04,54,6.30
2013,04,26,04,55,6.30
2013,04,26,04,56,6.30
2013,04,26,04,57,6.30
2013,04,26,04,58,6.30
2013,04,26,04,59,6.30
2013,04,26,05,00,6.30
2013,04,26,05,01,6.30
2013,04,26,05,02,6.30
2013,04,26,05,03,6.20
2013,04,26,05,04,6.20
2013,04,26,05,05,6.20
2013,04,26,05,06,6.20
2013,04,26,05,07,6.20
2013,04,26,05,08,6.20
2013,04,26,05,09,6.20
2013,04,26,05,10,6.10
2013,04,26,05,11,6.10
2013,04,26,05,12,6.10
2013,04,26,05,13,6.10
2013,04,26,05,14,6.00
2013,04,26,05,15,6.00
2013,04,26,05,16,5.90
2013,04,26,05,17,5.90
2013,04,26,05,18,5.90
2013,04,26,05,19,5.90
2013,04,26,05,20,5.90
2013,04,26,05,21,5.90
2013,04,26,05,22,5.80
2013,04,26,05,23,5.80
2013,04,26,05,24,5.80
2013,04,26,05,25,5.80
2013,04,26,05,26,5.80
2013,04,26,05,27,5.80
2013,04,26,05,28,5.80
2013,04,26,05,29,5.70
2013,04,26,05,30,5.70
2013,04,26,05,31,5.70
2013,04,26,05,32,5.70
2013,04,26,05,33,5.70
2013,04,26,05,34,5.80
2013,04,26,05,35,5.80
2013,04,26,05,36,5.80
2013,04,26,05,37,5.80
2013,04,26,05,38,5.80
2013,04,26,05,39,5.80
2013,04,26,05,40,5.80
2013,04,26,05,41,5.80
2013,04,26,05,42,5.70
2013,04,26,05,43,5.70
2013,04,26,05,44,5.70
2013,04,26,05,45,5.70
2013,04,26,05,46,5.70
2013,04,26,05,47,5.70
2013,04,26,05,48,5.70
2013,04,26,05,49,5.70
2013,04,26,05,50,5.70
2013,04,26,05,51,5.70
2013,04,26,05,52,5.70
2013,04,26,05,53,5.70
2013,04,26,05,54,5.70
2013,04,26,05,55,5.70
2013,04,26,05,56,5.70
2013,04,26,05,57,5.80
2013,04,26,05,58,5.80
2013,04,26,05,59,5.80
2013,04,26,06,00,5.80
2013,04,26,06,01,5.80
2013,04,26,06,02,5.80
2013,04,26,06,03,5.80
2013,04,26,06,04,5.80
2013,04,26,06,05,5.80
2013,04,26,06,06,5.70
2013,04,26,06,07,5.80
2013,04,26,06,08,5.80
2013,04,26,06,09,5.90
2013,04,26,06,10,6.00
2013,04,26,06,11,6.10
2013,04,26,06,12,6.20
2013,04,26,06,13,6.30
2013,04,26,06,14,6.30
2013,04,26,06,15,6.40
2013,04,26,06,16,6.40
2013,04,26,06,17,6.40
2013,04,26,06,18,6.50
2013,04,26,06,19,6.60
2013,04,26,06,20,6.70
2013,04,26,06,21,6.80
2013,04,26,06,22,6.80
2013,04,26,06,23,6.90
2013,04,26,06,24,7.00
2013,04,26,06,25,6.90
2013,04,26,06,26,6.90
2013,04,26,06,27,6.90
2013,04,26,06,28,6.90
2013,04,26,06,29,6.80
2013,04,26,06,30,6.80
2013,04,26,06,31,6.80
2013,04,26,06,32,6.80
2013,04,26,06,33,6.80
2013,04,26,06,34,6.70
2013,04,26,06,35,6.60
2013,04,26,06,36,6.50
2013,04,26,06,37,6.40
2013,04,26,06,38,6.30
2013,04,26,06,39,6.30
2013,04,26,06,40,6.30
2013,04,26,06,41,6.20
2013,04,26,06,42,6.20
2013,04,26,06,43,6.20
2013,04,26,06,44,6.20
2013,04,26,06,45,6.20
2013,04,26,06,46,6.20
2013,04,26,06,47,6.20
2013,04,26,06,48,6.30
2013,04,26,06,49,6.20
2013,04,26,06,50,6.20
2013,04,26,06,51,6.20
2013,04,26,06,52,6.20
2013,04,26,06,53,6.20
2013,04,26,06,54,6.20
2013,04,26,06,55,6.30
2013,04,26,06,56,6.30
2013,04,26,06,57,6.40
2013,04,26,06,58,6.50
2013,04,26,06,59,6.50
2013,04,26,07,00,6.60
2013,04,26,07,01,6.70
2013,04,26,07,02,6.70
2013,04,26,07,03,6.80
2013,04,26,07,04,6.90
2013,04,26,07,05,7.00
2013,04,26,07,06,7.10
2013,04,26,07,07,7.20
2013,04,26,07,08,7.30
2013,04,26,07,09,7.30
2013,04,26,07,10,7.40
2013,04,26,07,11,7.50
2013,04,26,07,12,7.50
2013,04,26,07,13,7.60
2013,04,26,07,14,7.70
2013,04,26,07,15,7.80
2013,04,26,07,16,7.90
2013,04,26,07,17,8.00
2013,04,26,07,18,8.10
2013,04,26,07,19,8.20
2013,04,26,07,20,8.30
2013,04,26,07,21,8.40
2013,04,26,07,22,8.40
2013,04,26,07,23,8.50
2013,04,26,07,24,8.50
2013,04,26,07,25,8.60
2013,04,26,07,26,8.60
2013,04,26,07,27,8.70
2013,04,26,07,28,8.70
2013,04,26,07,29,8.80
2013,04,26,07,30,8.80
2013,04,26,07,31,8.80
2013,04,26,07,32,8.90
2013,04,26,07,33,8.90
2013,04,26,07,34,9.00
2013,04,26,07,35,9.00
2013,04,26,07,36,9.00
2013,04,26,07,37,9.10
2013,04,26,07,38,9.10
2013,04,26,07,39,9.10
2013,04,26,07,40,9.20
2013,04,26,07,41,9.20
2013,04,26,07,42,9.20
2013,04,26,07,43,9.20
2013,04,26,07,44,9.30
2013,04,26,07,45,9.30
2013,04,26,07,46,9.30
2013,04,26,07,47,9.40
2013,04,26,07,48,9.40
2013,04,26,07,49,9.50
2013,04,26,07,50,9.50
2013,04,26,07,51,9.50
2013,04,26,07,52,9.50
2013,04,26,07,53,9.60
2013,04,26,07,54,9.60
2013,04,26,07,55,9.60
2013,04,26,07,56,9.60
2013,04,26,07,57,9.60
2013,04,26,07,58,9.60
2013,04,26,07,59,9.60
2013,04,26,08,00,9.70
2013,04,26,08,01,9.70
2013,04,26,08,02,9.70
2013,04,26,08,03,9.70
2013,04,26,08,04,9.80
2013,04,26,08,05,9.80
2013,04,26,08,06,9.80
2013,04,26,08,07,9.90
2013,04,26,08,08,9.90
2013,04,26,08,09,9.90
2013,04,26,08,10,9.90
2013,04,26,08,11,9.90
2013,04,26,08,12,9.90
2013,04,26,08,13,10.00
2013,04,26,08,14,10.00
2013,04,26,08,15,10.00
2013,04,26,08,16,10.00
2013,04,26,08,17,10.00
2013,04,26,08,18,10.00
2013,04,26,08,19,10.00
2013,04,26,08,20,10.10
2013,04,26,08,21,10.10
2013,04,26,08,22,10.10
2013,04,26,08,23,10.10
2013,04,26,08,24,10.10
2013,04,26,08,25,10.20
2013,04,26,08,26,10.20
2013,04,26,08,27,10.20
2013,04,26,08,28,10.20
2013,04,26,08,29,10.30
2013,04,26,08,30,10.30
2013,04,26,08,31,10.40
2013,04,26,08,32,10.40
2013,04,26,08,33,10.40
2013,04,26,08,34,10.40
2013,04,26,08,35,10.30
2013,04,26,08,36,10.30
2013,04,26,08,37,10.30
2013,04,26,08,38,10.30
2013,04,26,08,39,10.30
2013,04,26,08,40,10.40
2013,04,26,08,41,10.40
2013,04,26,08,42,10.30
2013,04,26,08,43,10.30
2013,04,26,08,44,10.30
2013,04,26,08,45,10.30
2013,04,26,08,46,10.20
2013,04,26,08,47,10.20
2013,04,26,08,48,10.10
2013,04,26,08,49,10.10
2013,04,26,08,50,10.10
2013,04,26,08,51,10.10
2013,04,26,08,52,10.10
2013,04,26,08,53,10.20
2013,04,26,08,54,10.20
2013,04,26,08,55,10.20
2013,04,26,08,56,10.10
2013,04,26,08,57,10.10
2013,04,26,08,58,10.10
2013,04,26,08,59,10.10
2013,04,26,09,00,10.10
2013,04,26,09,01,10.10
2013,04,26,09,02,10.10
2013,04,26,09,03,10.10
2013,04,26,09,04,10.10
2013,04,26,09,05,10.20
2013,04,26,09,06,10.20
2013,04,26,09,07,10.20
2013,04,26,09,08,10.20
2013,04,26,09,09,10.20
2013,04,26,09,10,10.20
2013,04,26,09,11,10.30
2013,04,26,09,12,10.30
2013,04,26,09,13,10.40
2013,04,26,09,14,10.40
2013,04,26,09,15,10.40
2013,04,26,09,16,10.40
2013,04,26,09,17,10.50
2013,04,26,09,18,10.50
2013,04,26,09,19,10.50
2013,04,26,09,20,10.60
2013,04,26,09,21,10.60
2013,04,26,09,22,10.70
2013,04,26,09,23,10.80
2013,04,26,09,24,10.80
2013,04,26,09,25,10.80
2013,04,26,09,26,10.90
2013,04,26,09,27,10.90
2013,04,26,09,28,11.00
2013,04,26,09,29,11.10
2013,04,26,09,30,11.20
2013,04,26,09,31,11.30
2013,04,26,09,32,11.20
2013,04,26,09,33,11.20
2013,04,26,09,34,11.20
2013,04,26,09,35,11.10
2013,04,26,09,36,11.10
2013,04,26,09,37,11.00
2013,04,26,09,38,10.90
2013,04,26,09,39,10.80
2013,04,26,09,40,10.80
2013,04,26,09,41,10.80
2013,04,26,09,42,10.80
2013,04,26,09,43,10.80
2013,04,26,09,44,10.70
2013,04,26,09,45,10.70
2013,04,26,09,46,10.70
2013,04,26,09,47,10.60
2013,04,26,09,48,10.70
2013,04,26,09,49,10.70
2013,04,26,09,50,10.60
2013,04,26,09,51,10.50
2013,04,26,09,52,10.50
2013,04,26,09,53,10.50
2013,04,26,09,54,10.50
2013,04,26,09,55,10.40
2013,04,26,09,56,10.40
2013,04,26,09,57,10.40
2013,04,26,09,58,10.40
2013,04,26,09,59,10.40
2013,04,26,10,00,10.40
2013,04,26,10,01,10.50
2013,04,26,10,02,10.50
2013,04,26,10,03,10.50
2013,04,26,10,04,10.50
2013,04,26,10,05,10.60
2013,04,26,10,06,10.60
2013,04,26,10,07,10.70
2013,04,26,10,08,10.60
2013,04,26,10,09,10.60
2013,04,26,10,10,10.60
2013,04,26,10,11,10.60
2013,04,26,10,12,10.50
2013,04,26,10,13,10.60
2013,04,26,10,14,10.60
2013,04,26,10,15,10.60
2013,04,26,10,16,10.60
2013,04,26,10,17,10.70
2013,04,26,10,18,10.60
2013,04,26,10,19,10.60
2013,04,26,10,20,10.50
2013,04,26,10,21,10.50
2013,04,26,10,22,10.40
2013,04,26,10,23,10.40
2013,04,26,10,24,10.30
2013,04,26,10,25,10.30
2013,04,26,10,26,10.30
2013,04,26,10,27,10.30
2013,04,26,10,28,10.30
2013,04,26,10,29,10.30
2013,04,26,10,30,10.40
2013,04,26,10,31,10.40
2013,04,26,10,32,10.40
2013,04,26,10,33,10.40
2013,04,26,10,34,10.40
2013,04,26,10,35,10.50
2013,04,26,10,36,10.50
2013,04,26,10,37,10.50
2013,04,26,10,38,10.50
2013,04,26,10,39,10.50
2013,04,26,10,40,10.50
2013,04,26,10,41,10.50
2013,04,26,10,42,10.50
2013,04,26,10,43,10.60
2013,04,26,10,44,10.60
2013,04,26,10,45,10.60
2013,04,26,10,46,10.50
2013,04,26,10,47,10.50
2013,04,26,10,48,10.50
2013,04,26,10,49,10.50
2013,04,26,10,50,10.60
2013,04,26,10,51,10.60
2013,04,26,10,52,10.60
2013,04,26,10,53,10.50
2013,04,26,10,54,10.60
2013,04,26,10,55,10.60
2013,04,26,10,56,10.50
2013,04,26,10,57,10.40
2013,04,26,10,58,10.30
2013,04,26,10,59,10.30
2013,04,26,11,00,10.40
2013,04,26,11,01,10.40
2013,04,26,11,02,10.50
2013,04,26,11,03,10.50
2013,04,26,11,04,10.50
2013,04,26,11,05,10.50
2013,04,26,11,06,10.50
2013,04,26,11,07,10.50
2013,04,26,11,08,10.40
2013,04,26,11,09,10.50
2013,04,26,11,10,10.50
2013,04,26,11,11,10.60
2013,04,26,11,12,10.60
2013,04,26,11,13,10.60
2013,04,26,11,14,10.70
2013,04,26,11,15,10.70
2013,04,26,11,16,10.70
2013,04,26,11,17,10.70
2013,04,26,11,18,10.70
2013,04,26,11,19,10.60
2013,04,26,11,20,10.60
2013,04,26,11,21,10.70
2013,04,26,11,22,10.70
2013,04,26,11,23,10.70
2013,04,26,11,24,10.70
2013,04,26,11,25,10.60
2013,04,26,11,26,10.60
2013,04,26,11,27,10.50
2013,04,26,11,28,10.50
2013,04,26,11,29,10.50
2013,04,26,11,30,10.60
2013,04,26,11,31,10.60
2013,04,26,11,32,10.50
2013,04,26,11,33,10.50
2013,04,26,11,34,10.50
2013,04,26,11,35,10.60
2013,04,26,11,36,10.70
2013,04,26,11,37,10.70
2013,04,26,11,38,10.80
2013,04,26,11,39,10.90
2013,04,26,11,40,11.00
2013,04,26,11,41,11.10
2013,04,26,11,42,11.20
2013,04,26,11,43,11.20
2013,04,26,11,44,11.30
2013,04,26,11,45,11.30
2013,04,26,11,46,11.30
2013,04,26,11,47,11.20
2013,04,26,11,48,11.20
2013,04,26,11,49,11.20
2013,04,26,11,50,11.20
2013,04,26,11,51,11.20
2013,04,26,11,52,11.20
2013,04,26,11,53,11.20
2013,04,26,11,54,11.20
2013,04,26,11,55,11.20
2013,04,26,11,56,11.20
2013,04,26,11,57,11.20
2013,04,26,11,58,11.20
2013,04,26,11,59,11.20
2013,04,26,12,00,11.20
2013,04,26,12,01,11.20
2013,04,26,12,02,11.30
2013,04,26,12,03,11.30
2013,04,26,12,04,11.30
2013,04,26,12,05,11.20
2013,04,26,12,06,11.20
2013,04,26,12,07,11.30
2013,04,26,12,08,11.30
2013,04,26,12,09,11.30
2013,04,26,12,10,11.40
2013,04,26,12,11,11.40
2013,04,26,12,12,11.40
2013,04,26,12,13,11.40
2013,04,26,12,14,11.40
2013,04,26,12,15,11.40
2013,04,26,12,16,11.40
2013,04,26,12,17,11.40
2013,04,26,12,18,11.40
2013,04,26,12,19,11.40
2013,04,26,12,20,11.40
2013,04,26,12,21,11.40
2013,04,26,12,22,11.40
2013,04,26,12,23,11.50
2013,04,26,12,24,11.50
2013,04,26,12,25,11.60
2013,04,26,12,26,11.60
2013,04,26,12,27,11.70
2013,04,26,12,28,11.80
2013,04,26,12,29,11.80
2013,04,26,12,30,11.90
2013,04,26,12,31,12.00
2013,04,26,12,32,12.00
2013,04,26,12,33,12.00
2013,04,26,12,34,12.10
2013,04,26,12,35,12.10
2013,04,26,12,36,12.20
2013,04,26,12,37,12.30
2013,04,26,12,38,12.30
2013,04,26,12,39,12.30
2013,04,26,12,40,12.30
2013,04,26,12,41,12.20
2013,04,26,12,42,12.20
2013,04,26,12,43,12.20
2013,04,26,12,44,12.10
2013,04,26,12,45,12.10
2013,04,26,12,46,12.00
2013,04,26,12,47,11.90
2013,04,26,12,48,11.90
2013,04,26,12,49,11.80
2013,04,26,12,50,11.90
2013,04,26,12,51,11.90
2013,04,26,12,52,11.90
2013,04,26,12,53,11.90
2013,04,26,12,54,12.00
2013,04,26,12,55,12.00
2013,04,26,12,56,12.00
2013,04,26,12,57,11.90
2013,04,26,12,58,11.80
2013,04,26,12,59,11.80
2013,04,26,13,00,11.80
2013,04,26,13,01,11.70
2013,04,26,13,02,11.70
2013,04,26,13,03,11.70
2013,04,26,13,04,11.70
2013,04,26,13,05,11.70
2013,04,26,13,06,11.70
2013,04,26,13,07,11.70
2013,04,26,13,08,11.70
2013,04,26,13,09,11.70
2013,04,26,13,10,11.80
2013,04,26,13,11,11.80
2013,04,26,13,12,11.80
2013,04,26,13,13,11.70
2013,04,26,13,14,11.60
2013,04,26,13,15,11.60
2013,04,26,13,16,11.60
2013,04,26,13,17,11.60
2013,04,26,13,18,11.60
2013,04,26,13,19,11.60
2013,04,26,13,20,11.60
2013,04,26,13,21,11.70
2013,04,26,13,22,11.70
2013,04,26,13,23,11.80
2013,04,26,13,24,11.80
2013,04,26,13,25,11.90
2013,04,26,13,26,11.90
2013,04,26,13,27,12.00
2013,04,26,13,28,12.00
2013,04,26,13,29,11.90
2013,04,26,13,30,11.90
2013,04,26,13,31,11.90
2013,04,26,13,32,11.90
2013,04,26,13,33,11.80
2013,04,26,13,34,11.80
2013,04,26,13,35,11.80
2013,04,26,13,36,11.70
2013,04,26,13,37,11.70
2013,04,26,13,38,11.70
2013,04,26,13,39,11.70
2013,04,26,13,40,11.80
2013,04,26,13,41,11.80
2013,04,26,13,42,11.80
2013,04,26,13,43,11.80
2013,04,26,13,44,11.80
2013,04,26,13,45,11.90
2013,04,26,13,46,11.90
2013,04,26,13,47,11.90
2013,04,26,13,48,11.90
2013,04,26,13,49,11.90
2013,04,26,13,50,11.90
2013,04,26,13,51,12.00
2013,04,26,13,52,12.00
2013,04,26,13,53,12.10
2013,04,26,13,54,12.00
2013,04,26,13,55,11.90
2013,04,26,13,56,11.90
2013,04,26,13,57,11.90
2013,04,26,13,58,11.80
2013,04,26,13,59,11.80
2013,04,26,14,00,11.80
2013,04,26,14,01,11.80
2013,04,26,14,02,11.90
2013,04,26,14,03,11.90
2013,04,26,14,04,12.00
2013,04,26,14,05,12.00
2013,04,26,14,06,12.10
2013,04,26,14,07,12.10
2013,04,26,14,08,12.20
2013,04,26,14,09,12.20
2013,04,26,14,10,12.20
2013,04,26,14,11,12.20
2013,04,26,14,12,12.10
2013,04,26,14,13,12.10
2013,04,26,14,14,12.10
2013,04,26,14,15,12.10
2013,04,26,14,16,12.10
2013,04,26,14,17,12.10
2013,04,26,14,18,12.20
2013,04,26,14,19,12.30
2013,04,26,14,20,12.30
2013,04,26,14,21,12.30
2013,04,26,14,22,12.30
2013,04,26,14,23,12.20
2013,04,26,14,24,12.20
2013,04,26,14,25,12.20
2013,04,26,14,26,12.10
2013,04,26,14,27,12.00
2013,04,26,14,28,12.00
2013,04,26,14,29,11.90
2013,04,26,14,30,11.90
2013,04,26,14,31,11.90
2013,04,26,14,32,11.90
2013,04,26,14,33,11.90
2013,04,26,14,34,12.00
2013,04,26,14,35,12.00
2013,04,26,14,36,12.10
2013,04,26,14,37,12.10
2013,04,26,14,38,12.10
2013,04,26,14,39,12.00
2013,04,26,14,40,12.00
2013,04,26,14,41,12.00
2013,04,26,14,42,12.00
2013,04,26,14,43,12.10
2013,04,26,14,44,12.20
2013,04,26,14,45,12.20
2013,04,26,14,46,12.30
2013,04,26,14,47,12.40
2013,04,26,14,48,12.60
2013,04,26,14,49,12.60
2013,04,26,14,50,12.70
2013,04,26,14,51,12.70
2013,04,26,14,52,12.70
2013,04,26,14,53,12.70
2013,04,26,14,54,12.70
2013,04,26,14,55,12.70
2013,04,26,14,56,12.80
2013,04,26,14,57,12.80
2013,04,26,14,58,12.80
2013,04,26,14,59,12.90
2013,04,26,15,00,13.00
2013,04,26,15,01,13.00
2013,04,26,15,02,13.10
2013,04,26,15,03,13.20
2013,04,26,15,04,13.40
2013,04,26,15,05,13.60
2013,04,26,15,06,13.80
2013,04,26,15,07,13.80
2013,04,26,15,08,13.90
2013,04,26,15,09,13.80
2013,04,26,15,10,13.70
2013,04,26,15,11,13.70
2013,04,26,15,12,13.70
2013,04,26,15,13,13.60
2013,04,26,15,14,13.50
2013,04,26,15,15,13.40
2013,04,26,15,16,13.20
2013,04,26,15,17,13.10
2013,04,26,15,18,13.10
2013,04,26,15,19,13.10
2013,04,26,15,20,13.20
2013,04,26,15,21,13.20
2013,04,26,15,22,13.20
2013,04,26,15,23,13.30
2013,04,26,15,24,13.30
2013,04,26,15,25,13.40
2013,04,26,15,26,13.40
2013,04,26,15,27,13.30
2013,04,26,15,28,13.30
2013,04,26,15,29,13.30
2013,04,26,15,30,13.40
2013,04,26,15,31,13.50
2013,04,26,15,32,13.60
2013,04,26,15,33,13.60
2013,04,26,15,34,13.70
2013,04,26,15,35,13.70
2013,04,26,15,36,13.80
2013,04,26,15,37,14.00
2013,04,26,15,38,14.10
2013,04,26,15,39,14.30
2013,04,26,15,40,14.40
2013,04,26,15,41,14.50
2013,04,26,15,42,14.60
2013,04,26,15,43,14.60
2013,04,26,15,44,14.60
2013,04,26,15,45,14.60
2013,04,26,15,46,14.50
2013,04,26,15,47,14.40
2013,04,26,15,48,14.30
2013,04,26,15,49,14.20
2013,04,26,15,50,14.10
2013,04,26,15,51,14.00
2013,04,26,15,52,14.00
2013,04,26,15,53,13.90
2013,04,26,15,54,14.00
2013,04,26,15,55,14.10
2013,04,26,15,56,14.10
2013,04,26,15,57,14.10
2013,04,26,15,58,14.10
2013,04,26,15,59,14.20
2013,04,26,16,00,14.30
2013,04,26,16,01,14.20
2013,04,26,16,02,14.20
2013,04,26,16,03,14.30
2013,04,26,16,04,14.40
2013,04,26,16,05,14.50
2013,04,26,16,06,14.60
2013,04,26,16,07,14.70
2013,04,26,16,08,14.80
2013,04,26,16,09,14.70
2013,04,26,16,10,14.70
2013,04,26,16,11,14.60
2013,04,26,16,12,14.50
2013,04,26,16,13,14.50
2013,04,26,16,14,14.40
2013,04,26,16,15,14.40
2013,04,26,16,16,14.40
2013,04,26,16,17,14.30
2013,04,26,16,18,14.30
2013,04,26,16,19,14.30
2013,04,26,16,20,14.30
2013,04,26,16,21,14.20
2013,04,26,16,22,14.20
2013,04,26,16,23,14.20
2013,04,26,16,24,14.20
2013,04,26,16,25,14.30
2013,04,26,16,26,14.40
2013,04,26,16,27,14.40
2013,04,26,16,28,14.40
2013,04,26,16,29,14.40
2013,04,26,16,30,14.40
2013,04,26,16,31,14.50
2013,04,26,16,32,14.60
2013,04,26,16,33,14.70
2013,04,26,16,34,14.60
2013,04,26,16,35,14.60
2013,04,26,16,36,14.60
2013,04,26,16,37,14.60
2013,04,26,16,38,14.60
2013,04,26,16,39,14.60
2013,04,26,16,40,14.60
2013,04,26,16,41,14.70
2013,04,26,16,42,14.70
2013,04,26,16,43,14.70
2013,04,26,16,44,14.70
2013,04,26,16,45,14.80
2013,04,26,16,46,14.80
2013,04,26,16,47,14.90
2013,04,26,16,48,15.00
2013,04,26,16,49,15.00
2013,04,26,16,50,15.00
2013,04,26,16,51,14.80
2013,04,26,16,52,14.70
2013,04,26,16,53,14.70
2013,04,26,16,54,14.70
2013,04,26,16,55,14.70
2013,04,26,16,56,14.60
2013,04,26,16,57,14.60
2013,04,26,16,58,14.50
2013,04,26,16,59,14.50
2013,04,26,17,00,14.50
2013,04,26,17,01,14.40
2013,04,26,17,02,14.30
2013,04,26,17,03,14.20
2013,04,26,17,04,14.20
2013,04,26,17,05,14.20
2013,04,26,17,06,14.20
2013,04,26,17,07,14.20
2013,04,26,17,08,14.20
2013,04,26,17,09,14.10
2013,04,26,17,10,14.10
2013,04,26,17,11,14.10
2013,04,26,17,12,14.00
2013,04,26,17,13,14.00
2013,04,26,17,14,13.90
2013,04,26,17,15,13.90
2013,04,26,17,16,13.90
2013,04,26,17,17,13.90
2013,04,26,17,18,13.90
2013,04,26,17,19,14.00
2013,04,26,17,20,14.00
2013,04,26,17,21,14.10
2013,04,26,17,22,14.20
2013,04,26,17,23,14.20
2013,04,26,17,24,14.20
2013,04,26,17,25,14.20
2013,04,26,17,26,14.10
2013,04,26,17,27,14.00
2013,04,26,17,28,14.00
2013,04,26,17,29,13.80
2013,04,26,17,30,13.80
2013,04,26,17,31,13.70
2013,04,26,17,32,13.70
2013,04,26,17,33,13.60
2013,04,26,17,34,13.50
2013,04,26,17,35,13.40
2013,04,26,17,36,13.40
2013,04,26,17,37,13.40
2013,04,26,17,38,13.40